Weather in Sanur

Indonesia     8°41′42″S   115°15′38″E
temp.,
°C
wind,
m/s
gust,
m/s
humid.,
%
clouds,
%
prec.,
mm/h
press.,
hPa
HPBL,
m
23 may, mon
mon2323:00+29e5567100 0.0 1010935
02:00+28e4569100 0.0 1009881
05:00+28e456985 0.0 10091014
08:00+28e567297 0.1 1010871
11:00+28ese6671100 0.0 1010733
14:00+29ese55680 0.0 1008645
17:00+29e56670 0.0 1008719
20:00+29ese567023 0.0 1010771
24 may, tue
tue2423:00+28ene677534 0.0 1011737
02:00+28e44737 0.0 1010776
05:00+28e347496 0.0 1009755
08:00+28ene2373100 0.0 1011610
11:00+29e3473100 0.0 1011643
14:00+29ese677249 0.0 1009635
17:00+29ese687277 0.0 1009759
20:00+29ese897494 0.4 1011770
25 may, wed
wed2523:00+28ene567384 0.1 1012711
02:00+27e347934 3.3 1011360
05:00+27e347770 5.5 1011624
08:00+28e457797 6.9 1012762
11:00+29e667468 0.1 1011852
14:00+29ese6677100 0.1 1009893
17:00+29ese667699 0.1 1008800
20:00+29e567699 2.5 1010618
26 may, thu
thu2623:00+28e457899 2.8 1010414
02:00+28ese457797 7.4 1009690
05:00+27e2377100 5.0 1008208
08:00+27ne1280100 5.9 1010217
11:00+27se1178100 4.3 1010115
14:00+28se1173100 7.4 100882
17:00+27wnw2374100 2.5 1008446
20:00+27wnw4479100 4.1 1010229
27 may, fri
fri2723:00+27wnw458199 3.3 1010272
02:00+26wnw6782100 7.1 1009398
05:00+26wnw5584100 2.4 1009324
08:00+26w348197 5.6 1011299
11:00+26s338461 5.1 1011432
14:00+25se889090 10.5 1009594
17:00+25se7885100 2.4 1010744
20:00+25ese3478100 2.5 1011661